Greybull, WY

10:37 PM MST on January 20, 2017 (GMT -0700)
Greybull

Weather History for KGEY - September, 2013

Change the Weather History Date:

Saturday, September 14, 2013

  Actual Average Record
Temperature  
Mean Temperature 59 °F 60 °F  
Max Temperature 65 °F 76 °F 90 °F (2015)
Min Temperature 53 °F 44 °F 35 °F (2012)
Degree Days  
Heating Degree Days 6 6  
Month to date heating degree days 7 55  
Since 1 July heating degree days 7 76  
Cooling Degree Days 0 1  
Month to date cooling degree days 87 30  
Year to date cooling degree days 996 663  
Growing Degree Days 8 (Base 50)    
Moisture  
Dew Point 57 °F    
Average Humidity 92    
Maximum Humidity 100    
Minimum Humidity 84    
Precipitation  
Precipitation T in 0.03 in 0.57 in (2011)
Month to date precipitation T 0.41  
Year to date precipitation 2.62 5.86  
Sea Level Pressure  
Sea Level Pressure 29.96 in    
Wind  
Wind Speed 4 mph (SSE)    
Max Wind Speed 14 mph    
Max Gust Speed 17 mph    
Visibility 5 miles    
Events Fog , Rain    
T = Trace of Precipitation, MM = Missing Value Source: NWS Daily Summary

Daily Weather History Graph

Daily Weather History Graph

Search for Another Location

Airport or City:

Trip Planner

Search our weather history database for the weather conditions in past years. The results will help you decide how hot, cold, wet, or windy it might be!

Date:

Astronomy

Sep. 14, 2013 Rise Set
Actual Time 6:50 AM MDT 7:24 PM MDT
Civil Twilight 6:21 AM MDT 7:53 PM MDT
Nautical Twilight 5:46 AM MDT 8:28 PM MDT
Astronomical Twilight 5:10 AM MDT 9:03 PM MDT
Moon 4:16 PM MDT (9/14) 1:15 AM MDT (9/14)
Length of Visible Light 13h 32m
Length of Day
12h 33m
Waxing Gibbous, 73% of the Moon is Illuminated
Sep 14
Waxing Gibbous
Sep 19
Full
Sep 26
Last Quarter
Oct 4
New
Oct 11
First Quarter

Hourly Weather History & Observations

Time (MDT) Temp. Dew Point Humidity Pressure Visibility Wind Dir Wind Speed Gust Speed Precip Events Conditions
12:53 AM 55.9 °F 55.9 °F 100% 29.84 in 0.2 mi Calm Calm - N/A Fog Fog
1:53 AM 55.9 °F 55.0 °F 97% 29.85 in 0.2 mi Calm Calm - N/A Fog Fog
2:53 AM 55.9 °F 55.9 °F 100% 29.86 in 0.2 mi Calm Calm - N/A Fog Fog
3:53 AM 55.0 °F 55.0 °F 100% 29.86 in 0.2 mi Calm Calm - N/A Fog Fog
4:53 AM 55.0 °F 55.0 °F 100% 29.86 in 0.2 mi Calm Calm - N/A Fog Fog
5:53 AM 54.0 °F 54.0 °F 100% 29.87 in 0.2 mi South 4.6 mph - N/A Fog Fog
6:02 AM 53.6 °F 53.6 °F 100% 29.92 in 1.2 mi SSW 4.6 mph - N/A   Overcast
6:05 AM 53.6 °F 53.6 °F 100% 29.92 in 4.0 mi SSW 4.6 mph - N/A   Overcast
6:46 AM 53.6 °F 53.6 °F 100% 29.94 in 1.8 mi South 4.6 mph - N/A   Overcast
6:50 AM 53.6 °F 53.6 °F 100% 29.94 in 0.8 mi South 4.6 mph - N/A   Overcast
6:53 AM 54.0 °F 54.0 °F 100% 29.89 in 0.5 mi South 4.6 mph - N/A Fog Fog
7:53 AM 54.0 °F 54.0 °F 100% 29.91 in 1.0 mi SSE 4.6 mph - 0.00 in Rain Light Rain
8:13 AM 53.6 °F 53.6 °F 100% 29.96 in 1.2 mi SSE 4.6 mph - 0.00 in Rain Rain
8:32 AM 53.6 °F 53.6 °F 100% 29.96 in 2.5 mi SSE 4.6 mph - N/A Rain Light Rain
8:39 AM 53.6 °F 53.6 °F 100% 29.96 in 3.0 mi SSE 5.8 mph - N/A Rain Light Rain
8:53 AM 54.0 °F 54.0 °F 100% 29.92 in 2.5 mi South 3.5 mph - N/A Rain Light Rain
9:06 AM 53.6 °F 53.6 °F 100% 29.96 in 2.5 mi South 4.6 mph - N/A Rain Light Rain
9:17 AM 53.6 °F 53.6 °F 100% 29.97 in 5.0 mi South 3.5 mph - N/A Rain Light Rain
9:46 AM 55.4 °F 55.4 °F 100% 29.97 in 5.0 mi Variable 4.6 mph - N/A   Overcast
9:53 AM 55.0 °F 55.0 °F 100% 29.93 in 5.0 mi Calm Calm - N/A   Overcast
10:31 AM 55.4 °F 55.4 °F 100% 29.98 in 5.0 mi SE 4.6 mph - N/A Rain Light Rain
10:53 AM 55.9 °F 55.9 °F 100% 29.94 in 3.0 mi SSE 5.8 mph - N/A Rain Rain
11:32 AM 57.2 °F 57.2 °F 100% 29.98 in 2.0 mi SSE 5.8 mph - N/A Rain Light Rain
11:44 AM 57.2 °F 57.2 °F 100% 29.98 in 1.2 mi SSE 5.8 mph - N/A Rain Heavy Rain
11:53 AM 57.0 °F 57.0 °F 100% 29.94 in 1.5 mi SSE 5.8 mph - N/A Rain Rain
12:09 PM 57.2 °F 57.2 °F 100% 29.98 in 1.5 mi SE 4.6 mph - N/A Rain Light Rain
12:24 PM 59.0 °F 57.2 °F 94% 29.98 in 2.5 mi SE 5.8 mph - N/A Rain Light Rain
12:32 PM 59.0 °F 57.2 °F 94% 29.98 in 4.0 mi SE 5.8 mph - N/A Rain Light Rain
12:53 PM 59.0 °F 57.9 °F 96% 29.94 in 3.0 mi SSE 3.5 mph - N/A Rain Light Rain
1:21 PM 59.0 °F 59.0 °F 100% 29.98 in 2.0 mi SE 4.6 mph - N/A Rain Light Rain
1:29 PM 59.0 °F 57.2 °F 94% 29.98 in 1.8 mi ESE 3.5 mph - N/A Rain Light Rain
1:38 PM 60.8 °F 59.0 °F 94% 29.98 in 2.0 mi Variable 3.5 mph - N/A Rain Light Rain
1:51 PM 60.8 °F 59.0 °F 94% 29.98 in 4.0 mi Calm Calm - N/A   Overcast
1:52 PM 60.1 °F 59.0 °F 96% 29.94 in 4.0 mi Calm Calm - N/A   Overcast
2:11 PM 62.6 °F 59.0 °F 88% 29.98 in 10.0 mi Calm Calm - N/A   Overcast
2:19 PM 62.6 °F 57.2 °F 82% 29.99 in 10.0 mi Calm Calm - N/A   Overcast
2:53 PM 63.0 °F 59.0 °F 87% 29.93 in 10.0 mi NNW 5.8 mph - N/A   Overcast
3:09 PM 64.4 °F 59.0 °F 83% 29.99 in 10.0 mi NNW 11.5 mph - N/A   Overcast
3:53 PM 63.0 °F 59.0 °F 87% 29.95 in 9.0 mi NNW 12.7 mph - N/A Rain Light Rain
4:53 PM 62.1 °F 59.0 °F 90% 29.96 in 10.0 mi NW 10.4 mph - N/A Rain Light Rain
5:53 PM 62.1 °F 57.9 °F 86% 29.97 in 10.0 mi NNW 11.5 mph - N/A   Overcast
6:05 PM 62.6 °F 59.0 °F 88% 30.02 in 10.0 mi NNW 8.1 mph - N/A   Overcast
6:34 PM 62.6 °F 57.2 °F 82% 30.02 in 10.0 mi NNW 9.2 mph - N/A   Overcast
6:53 PM 63.0 °F 57.9 °F 84% 29.97 in 10.0 mi NNW 9.2 mph - N/A   Overcast
7:53 PM 63.0 °F 57.9 °F 84% 29.99 in 10.0 mi NNW 9.2 mph - N/A   Overcast
8:12 PM 62.6 °F 57.2 °F 82% 30.04 in 10.0 mi NNW 5.8 mph - N/A   Overcast
8:53 PM 62.1 °F 59.0 °F 90% 30.01 in 10.0 mi North 3.5 mph - N/A Rain Light Rain
9:53 PM 61.0 °F 59.0 °F 93% 30.02 in 10.0 mi Calm Calm - N/A   Mostly Cloudy
10:26 PM 60.8 °F 59.0 °F 94% 30.06 in 10.0 mi WNW 5.8 mph - N/A   Overcast
10:53 PM 61.0 °F 59.0 °F 93% 30.02 in 10.0 mi Calm Calm - N/A   Overcast
11:14 PM 60.8 °F 59.0 °F 94% 30.08 in 7.0 mi Calm Calm - N/A Rain Light Rain
11:36 PM 60.8 °F 60.8 °F 100% 30.08 in 6.0 mi South 3.5 mph - N/A   Overcast
11:53 PM 61.0 °F 59.0 °F 93% 30.03 in 10.0 mi South 3.5 mph - N/A   Overcast